EW7659 Weather Reports


Display with metric or nautical units.
time (UTC)temp
F
wind
direction
speed
MPH
gust
MPH
rain 1hr
in
rain 24hr
in
rain mn
in
humidity
%
barometer
mb
20260904024130 87 180 0.0 0.0 0.00 0.00 0.00 56 1006.5
20260904023629 87 180 0.0 0.0 0.00 0.00 0.00 56 1006.5
20260904023130 87 180 0.0 0.0 0.00 0.00 0.00 55 1006.4
20260904022846 87 180 0.0 0.0 0.00 0.00 0.00 55 1006.2
20260904022129 87 180 0.0 0.0 0.00 0.00 0.00 55 1006.2
20260904022112 88 180 0.0 0.0 0.00 0.00 0.00 55 1006.1
20260904021129 88 180 0.0 0.0 0.00 0.00 0.00 54 1006.1
20260904021113 88 180 0.0 0.0 0.00 0.00 0.00 54 1006.1
20260904020129 88 180 0.0 0.0 0.00 0.00 0.00 54 1006.1
20260904015628 88 180 0.0 0.0 0.00 0.00 0.00 53 1006.0
20260904015129 89 180 0.0 0.0 0.00 0.00 0.00 53 1005.9
20260904014629 89 180 0.0 0.0 0.00 0.00 0.00 53 1005.9
20260904014129 89 180 0.0 0.0 0.00 0.00 0.00 53 1005.8
20260904013629 89 180 0.0 0.0 0.00 0.00 0.00 52 1005.7
20260904013129 89 180 0.0 0.0 0.00 0.00 0.00 52 1005.7
20260904012629 90 180 0.0 0.0 0.00 0.00 0.00 51 1005.7
20260904012129 90 180 0.0 0.0 0.00 0.00 0.00 51 1005.6
20260904011629 90 180 0.0 0.0 0.00 0.00 0.00 51 1005.6
20260904011129 90 180 0.0 0.0 0.00 0.00 0.00 51 1005.5
20260904010629 91 180 0.0 0.0 0.00 0.00 0.00 50 1005.5
20260904010130 91 184 0.0 0.0 0.00 0.00 0.00 50 1005.5
20260904005628 91 184 0.0 0.0 0.00 0.00 0.00 50 1005.5
20260904005130 91 184 0.0 0.0 0.00 0.00 0.00 50 1005.5
20260904004630 92 184 0.0 1.0 0.00 0.00 0.00 49 1005.4
20260904004129 92 184 0.0 5.0 0.00 0.00 0.00 49 1005.4
20260904003629 92 190 0.0 5.0 0.00 0.00 0.00 49 1005.5
20260904003129 92 169 0.0 3.0 0.00 0.00 0.00 49 1005.4
20260904002848 92 144 0.0 4.0 0.00 0.00 0.00 48 1005.4
20260904002345 92 183 0.0 7.0 0.00 0.00 0.00 48 1005.4
20260904001629 93 200 1.0 11.0 0.00 0.00 0.00 48 1005.4
20260904001128 93 159 1.0 11.0 0.00 0.00 0.00 48 1005.4
20260904000626 93 173 1.0 9.0 0.00 0.00 0.00 48 1005.4
20260904000126 93 175 1.0 9.0 0.00 0.00 0.00 47 1005.3
20260903235627 94 152 1.0 13.0 0.00 0.00 0.00 47 1005.3
20260903235126 94 213 1.0 13.0 0.00 0.00 0.00 47 1005.4
20260903234842 94 163 1.0 10.0 0.00 0.00 0.00 46 1005.3
20260903234122 94 164 1.0 14.0 0.00 0.00 0.00 46 1005.3
20260903233622 94 169 1.0 14.0 0.00 0.00 0.00 46 1005.3
20260903233122 94 161 1.0 16.0 0.00 0.00 0.00 46 1005.3
20260903232622 95 155 1.0 16.0 0.00 0.00 0.00 46 1005.2
20260903232122 95 180 1.0 13.0 0.00 0.00 0.00 46 1005.2
20260903231622 95 175 1.0 9.0 0.00 0.00 0.00 45 1005.2
20260903231122 95 161 1.0 9.0 0.00 0.00 0.00 45 1005.2
20260903230620 95 108 1.0 12.0 0.00 0.00 0.00 43 1005.1
20260903230120 95 186 1.0 12.0 0.00 0.00 0.00 43 1005.1
20260903225618 95 176 2.0 15.0 0.00 0.00 0.00 44 1005.1
20260903225118 96 168 4.0 15.0 0.00 0.00 0.00 44 1005.1
20260903224617 96 157 4.0 13.0 0.00 0.00 0.00 43 1005.1
20260903224118 96 138 2.0 12.0 0.00 0.00 0.00 43 1005.0
20260903223618 96 163 2.0 16.0 0.00 0.00 0.00 43 1005.1
20260903223114 96 173 2.0 16.0 0.00 0.00 0.00 42 1005.1
20260903222613 96 182 1.0 12.0 0.00 0.00 0.00 42 1005.0
20260903222334 97 196 1.0 12.0 0.00 0.00 0.00 42 1004.9
20260903221614 97 171 2.0 12.0 0.00 0.00 0.00 42 1005.0
20260903221559 97 173 2.0 12.0 0.00 0.00 0.00 42 1005.1
20260903220614 97 171 2.0 18.0 0.00 0.00 0.00 42 1005.0
20260903220114 97 175 3.0 18.0 0.00 0.00 0.00 41 1005.0
20260903215614 97 156 2.0 13.0 0.00 0.00 0.00 40 1005.0
20260903215336 98 179 2.0 12.0 0.00 0.00 0.00 40 1005.1
20260903214610 98 146 3.0 16.0 0.00 0.00 0.00 40 1005.1
20260903214110 98 191 3.0 16.0 0.00 0.00 0.00 40 1005.3
20260903213610 98 172 3.0 12.0 0.00 0.00 0.00 40 1005.3
20260903213110 98 208 3.0 11.0 0.00 0.00 0.00 41 1005.3
20260903212613 98 176 3.0 15.0 0.00 0.00 0.00 41 1005.3
20260903212109 98 184 3.0 15.0 0.00 0.00 0.00 41 1005.3
20260903211610 98 165 2.0 13.0 0.00 0.00 0.00 41 1005.3
20260903211109 98 130 2.0 11.0 0.00 0.00 0.00 41 1005.4
20260903210835 98 171 3.0 13.0 0.00 0.00 0.00 41 1005.5
20260903210106 98 159 4.0 17.0 0.00 0.00 0.00 41 1005.6
20260903205829 98 169 3.0 17.0 0.00 0.00 0.00 41 1005.6
20260903205105 98 172 4.0 14.0 0.00 0.00 0.00 40 1005.6
20260903204827 98 187 3.0 13.0 0.00 0.00 0.00 40 1005.6
20260903204106 98 211 2.0 14.0 0.00 0.00 0.00 41 1005.6
20260903203826 98 151 4.0 14.0 0.00 0.00 0.00 40 1005.7
20260903203103 98 175 4.0 14.0 0.00 0.00 0.00 39 1005.7
20260903202604 98 189 3.0 21.0 0.00 0.00 0.00 39 1005.8
20260903202102 98 171 3.0 21.0 0.00 0.00 0.00 39 1005.8
20260903201601 98 138 2.0 10.0 0.00 0.00 0.00 39 1005.8
20260903201101 98 143 1.0 10.0 0.00 0.00 0.00 38 1005.9
20260903200602 98 186 1.0 15.0 0.00 0.00 0.00 39 1005.9
20260903195601 97 172 6.0 14.0 0.00 0.00 0.00 39 1006.0
20260903195056 97 167 4.0 14.0 0.00 0.00 0.00 39 1006.1
20260903194556 98 186 2.0 12.0 0.00 0.00 0.00 40 1006.0
20260903194053 97 196 3.0 13.0 0.00 0.00 0.00 41 1006.1
20260903193553 97 188 3.0 13.0 0.00 0.00 0.00 41 1006.1
20260903193052 97 160 3.0 16.0 0.00 0.00 0.00 41 1006.2
20260903192550 97 176 3.0 16.0 0.00 0.00 0.00 40 1006.3
20260903192050 98 159 1.0 10.0 0.00 0.00 0.00 41 1006.5
20260903191547 97 175 3.0 13.0 0.00 0.00 0.00 41 1006.6
20260903191310 97 186 4.0 14.0 0.00 0.00 0.00 40 1006.7
20260903190547 97 169 3.0 14.0 0.00 0.00 0.00 41 1006.7
20260903190046 97 179 2.0 11.0 0.00 0.00 0.00 42 1006.8
20260903185810 97 171 1.0 9.0 0.00 0.00 0.00 42 1006.7
20260903185045 96 173 2.0 9.0 0.00 0.00 0.00 43 1006.9
20260903184809 96 150 1.0 9.0 0.00 0.00 0.00 44 1006.9
20260903184044 96 167 2.0 11.0 0.00 0.00 0.00 43 1006.9
20260903183812 96 178 2.0 12.0 0.00 0.00 0.00 45 1007.0
20260903183041 95 163 1.0 12.0 0.00 0.00 0.00 46 1007.0
20260903182541 96 161 0.0 12.0 0.00 0.00 0.00 45 1007.3
20260903182040 95 173 1.0 11.0 0.00 0.00 0.00 47 1007.3
20260903181537 95 169 3.0 13.0 0.00 0.00 0.00 46 1007.3
20260903181037 95 194 2.0 13.0 0.00 0.00 0.00 46 1007.5
20260903180537 95 169 1.0 10.0 0.00 0.00 0.00 47 1007.5
20260903180037 94 213 1.0 11.0 0.00 0.00 0.00 47 1007.5
20260903175533 94 205 2.0 12.0 0.00 0.00 0.00 48 1007.6
20260903175250 94 182 2.0 12.0 0.00 0.00 0.00 48 1007.7
20260903174531 94 169 1.0 14.0 0.00 0.00 0.00 48 1007.8
20260903174030 93 175 1.0 14.0 0.00 0.00 0.00 49 1007.9
20260903173529 93 175 1.0 11.0 0.00 0.00 0.00 49 1007.9
20260903173029 93 166 2.0 15.0 0.00 0.00 0.00 51 1008.0
20260903172757 92 241 2.0 15.0 0.00 0.00 0.00 50 1008.0
20260903172257 92 160 1.0 15.0 0.00 0.00 0.00 50 1008.1
20260903171530 92 165 2.0 16.0 0.00 0.00 0.00 50 1008.2
20260903171028 92 175 3.0 16.0 0.00 0.00 0.00 51 1008.2
20260903170530 92 190 3.0 12.0 0.00 0.00 0.00 52 1008.3
20260903170029 92 186 3.0 12.0 0.00 0.00 0.00 51 1008.3
20260903165529 91 117 3.0 11.0 0.00 0.00 0.00 52 1008.3
20260903165029 91 195 2.0 11.0 0.00 0.00 0.00 52 1008.5
20260903164534 91 178 2.0 14.0 0.00 0.00 0.00 53 1008.5
20260903164030 91 182 2.0 18.0 0.00 0.00 0.00 53 1008.6
20260903163749 91 155 2.0 18.0 0.00 0.00 0.00 53 1008.5
20260903163030 90 188 2.0 15.0 0.00 0.00 0.00 54 1008.6
20260903162529 90 181 2.0 11.0 0.00 0.00 0.00 54 1008.5
20260903162029 90 167 3.0 14.0 0.00 0.00 0.00 55 1008.6
20260903161751 89 166 5.0 17.0 0.00 0.00 0.00 55 1008.6
20260903161029 89 173 5.0 17.0 0.00 0.00 0.00 56 1008.7
20260903160752 89 147 3.0 16.0 0.00 0.00 0.00 55 1008.8
20260903160029 89 119 1.0 8.0 0.00 0.00 0.00 56 1008.7
20260903155529 89 182 1.0 10.0 0.00 0.00 0.00 57 1008.7
20260903155246 89 183 1.0 10.0 0.00 0.00 0.00 58 1008.7
20260903154529 88 182 1.0 9.0 0.00 0.00 0.00 59 1008.7
20260903154029 87 167 2.0 16.0 0.00 0.00 0.00 60 1008.7
20260903153529 87 179 3.0 16.0 0.00 0.00 0.00 59 1008.8
20260903153514 87 160 3.0 13.0 0.00 0.00 0.00 59 1008.8
20260903152752 87 158 4.0 12.0 0.00 0.00 0.00 59 1008.8
20260903152252 87 173 2.0 16.0 0.00 0.00 0.00 59 1008.9
20260903151525 87 190 2.0 16.0 0.00 0.00 0.00 60 1008.9
20260903151020 86 175 2.0 14.0 0.00 0.00 0.00 61 1008.9
20260903150514 86 160 1.0 14.0 0.00 0.00 0.00 62 1009.0
20260903150007 85 218 1.0 13.0 0.00 0.00 0.00 63 1009.0
20260903145505 85 250 1.0 14.0 0.00 0.00 0.00 63 1009.0
20260903145005 85 239 2.0 17.0 0.00 0.00 0.00 64 1009.1
20260903144503 85 242 2.0 17.0 0.00 0.00 0.00 65 1009.1
20260903144223 85 249 1.0 9.0 0.00 0.00 0.00 65 1009.2
20260903143504 84 178 1.0 9.0 0.00 0.00 0.00 66 1009.2
20260903143003 84 190 2.0 10.0 0.00 0.00 0.00 67 1009.3
20260903142503 83 183 2.0 10.0 0.00 0.00 0.00 68 1009.4
20260903142003 83 190 1.0 9.0 0.00 0.00 0.00 68 1009.4
20260903141503 83 173 1.0 8.0 0.00 0.00 0.00 69 1009.4
20260903141001 82 176 2.0 7.0 0.00 0.00 0.00 69 1009.5
20260903140502 82 180 1.0 7.0 0.00 0.00 0.00 70 1009.5
20260903140214 81 177 1.0 9.0 0.00 0.00 0.00 72 1009.5
20260903140155 81 177 1.0 6.0 0.00 0.00 0.00 72 1009.5
20260903135000 80 182 2.0 10.0 0.00 0.00 0.00 73 1009.5
20260903134949 80 169 3.0 10.0 0.00 0.00 0.00 73 1009.5
20260903134000 80 173 1.0 8.0 0.00 0.00 0.00 73 1009.5
20260903133501 80 177 1.0 7.0 0.00 0.00 0.00 74 1009.5
20260903133001 79 177 1.0 7.0 0.00 0.00 0.00 75 1009.5
20260903132455 79 173 1.0 7.0 0.00 0.00 0.00 76 1009.5
20260903131950 78 173 1.0 7.0 0.00 0.00 0.00 76 1009.5
20260903131449 78 172 1.0 7.0 0.00 0.00 0.00 77 1009.4
20260903130947 77 171 2.0 7.0 0.00 0.00 0.00 78 1009.3
20260903130447 77 171 1.0 9.0 0.00 0.00 0.00 78 1009.2
20260903125947 77 172 1.0 9.0 0.00 0.00 0.00 79 1009.2
20260903125446 76 174 1.0 7.0 0.00 0.00 0.00 79 1009.3
20260903124946 76 174 1.0 7.0 0.00 0.00 0.00 80 1009.3
20260903124448 76 172 1.0 3.0 0.00 0.00 0.00 80 1009.1
20260903124208 76 173 1.0 9.0 0.00 0.00 0.00 80 1009.0
20260903123446 75 174 1.0 9.0 0.00 0.00 0.00 81 1008.9
20260903122945 75 171 1.0 7.0 0.00 0.00 0.00 80 1009.0
20260903122445 75 173 0.0 7.0 0.00 0.00 0.00 80 1008.9
20260903122351 75 180 0.0 0.0 0.00 0.00 0.00 80 1008.8
20260903122115 75 173 0.0 2.0 0.00 0.00 0.00 80 1008.9
20260903121855 75 175 0.0 2.0 0.00 0.00 0.00 80 1008.9
20260903121847 75 178 0.0 2.0 0.00 0.00 0.00 80 1008.8
20260903121834 75 180 0.0 0.0 0.00 0.00 0.00 80 1008.9
20260903120201 75 180 0.0 0.0 0.00 0.00 0.00 80 1008.8
20260903115703 75 180 0.0 0.0 0.00 0.00 0.00 80 1008.8
20260903114939 75 180 0.0 0.0 0.00 0.00 0.00 80 1008.7
20260903114437 75 180 0.0 0.0 0.00 0.00 0.00 80 1008.7
20260903114155 75 180 0.0 0.0 0.00 0.00 0.00 80 1008.7
20260903113700 75 180 0.0 0.0 0.00 0.00 0.00 79 1008.6
20260903112935 75 180 0.0 0.0 0.00 0.00 0.00 79 1008.5
20260903112435 76 180 0.0 0.0 0.00 0.00 0.00 79 1008.5
20260903111935 76 180 0.0 0.0 0.00 0.00 0.00 79 1008.5
20260903111651 76 180 0.0 0.0 0.00 0.00 0.00 78 1008.5
20260903110929 76 180 0.0 0.0 0.00 0.00 0.00 78 1008.5
20260903110429 76 180 0.0 0.0 0.00 0.00 0.00 78 1008.5
20260903105930 76 180 0.0 0.0 0.00 0.00 0.00 78 1008.5
20260903105429 76 180 0.0 0.0 0.00 0.00 0.00 78 1008.4
20260903104929 76 180 0.0 0.0 0.00 0.00 0.00 77 1008.4
20260903104429 76 180 0.0 0.0 0.00 0.00 0.00 77 1008.3
20260903103929 76 180 0.0 0.0 0.00 0.00 0.00 77 1008.3
20260903103428 76 180 0.0 0.0 0.00 0.00 0.00 77 1008.3
20260903103152 76 180 0.0 0.0 0.00 0.00 0.00 76 1008.3
20260903102429 76 180 0.0 0.0 0.00 0.00 0.00 76 1008.3
20260903101929 77 180 0.0 0.0 0.00 0.00 0.00 75 1008.4
20260903101429 77 180 0.0 1.0 0.00 0.00 0.00 75 1008.4
20260903100934 77 180 0.0 1.0 0.00 0.00 0.00 75 1008.4
20260903100430 77 180 0.0 0.0 0.00 0.00 0.00 75 1008.4
20260903095928 77 180 0.0 1.0 0.00 0.00 0.00 75 1008.4
20260903095428 77 180 0.0 1.0 0.00 0.00 0.00 74 1008.4
20260903095148 77 180 0.0 1.0 0.00 0.00 0.00 74 1008.4
20260903094429 77 180 0.0 0.0 0.00 0.00 0.00 74 1008.4
20260903093929 77 180 0.0 0.0 0.00 0.00 0.00 74 1008.4
20260903093433 78 180 0.0 1.0 0.00 0.00 0.00 73 1008.4
20260903093429 77 180 0.0 0.0 0.00 0.00 0.00 73 1008.5
20260903092652 78 180 0.0 1.0 0.00 0.00 0.00 72 1008.3
20260903091929 78 180 0.0 0.0 0.00 0.00 0.00 72 1008.3
20260903091429 78 180 0.0 0.0 0.00 0.00 0.00 71 1008.3
20260903091148 78 180 0.0 0.0 0.00 0.00 0.00 71 1008.2
20260903090429 79 180 0.0 0.0 0.00 0.00 0.00 70 1008.2
20260903085928 79 180 0.0 0.0 0.00 0.00 0.00 70 1008.2
20260903085429 79 180 0.0 0.0 0.00 0.00 0.00 69 1008.2
20260903085149 79 180 0.0 0.0 0.00 0.00 0.00 69 1008.2
20260903084429 80 180 0.0 0.0 0.00 0.00 0.00 68 1008.2
20260903083929 80 180 0.0 0.0 0.00 0.00 0.00 68 1008.2
20260903083429 80 180 0.0 0.0 0.00 0.00 0.00 68 1008.1
20260903083414 80 180 0.0 0.0 0.00 0.00 0.00 68 1008.2
20260903082429 80 180 0.0 0.0 0.00 0.00 0.00 67 1008.2
20260903081929 80 180 0.0 0.0 0.00 0.00 0.00 66 1008.1
20260903081429 81 180 0.0 0.0 0.00 0.00 0.00 66 1008.2
20260903080928 81 180 0.0 0.0 0.00 0.00 0.00 65 1008.2
20260903080646 81 180 0.0 0.0 0.00 0.00 0.00 65 1008.1
20260903075925 81 180 0.0 0.0 0.00 0.00 0.00 65 1008.1
20260903075423 81 180 0.0 0.0 0.00 0.00 0.00 65 1008.2
20260903074921 81 180 0.0 3.0 0.00 0.00 0.00 64 1008.2
20260903074644 81 180 0.0 3.0 0.00 0.00 0.00 64 1008.1
20260903073917 81 180 0.0 0.0 0.00 0.00 0.00 64 1008.1
20260903073416 81 180 0.0 0.0 0.00 0.00 0.00 64 1008.1
20260903072914 82 180 0.0 0.0 0.00 0.00 0.00 63 1008.2
20260903072412 82 180 0.0 0.0 0.00 0.00 0.00 63 1008.1
20260903071911 82 180 0.0 0.0 0.00 0.00 0.00 63 1008.1
20260903071408 82 180 0.0 0.0 0.00 0.00 0.00 63 1008.1
20260903070906 82 180 0.0 0.0 0.00 0.00 0.00 63 1008.0
20260903070405 82 180 0.0 0.0 0.00 0.00 0.00 62 1008.0
20260903065902 82 180 0.0 0.0 0.00 0.00 0.00 62 1008.0
20260903065624 82 180 0.0 0.0 0.00 0.00 0.00 62 1008.0
20260903065124 82 180 0.0 0.0 0.00 0.00 0.00 62 1008.0
20260903064401 82 180 0.0 0.0 0.00 0.00 0.00 62 1008.0
20260903063901 82 180 0.0 0.0 0.00 0.00 0.00 62 1007.9
20260903063400 82 180 0.0 3.0 0.00 0.00 0.00 61 1008.0
20260903062902 83 180 0.0 3.0 0.00 0.00 0.00 61 1007.9
20260903062401 83 180 0.0 4.0 0.00 0.00 0.00 61 1007.8
20260903061901 83 180 0.0 5.0 0.00 0.00 0.00 60 1007.8
20260903061850 83 180 0.0 5.0 0.00 0.00 0.00 60 1007.8
20260903060901 83 173 0.0 3.0 0.00 0.00 0.00 60 1007.7
20260903060401 83 173 0.0 2.0 0.00 0.00 0.00 60 1007.6
20260903055901 83 173 0.0 1.0 0.00 0.00 0.00 59 1007.6
20260903055401 83 173 0.0 0.0 0.00 0.00 0.00 59 1007.6
20260903055118 83 172 0.0 5.0 0.00 0.00 0.00 58 1007.6
20260903054401 84 171 1.0 7.0 0.00 0.00 0.00 58 1007.6
20260903053901 84 171 1.0 7.0 0.00 0.00 0.00 57 1007.5
20260903053401 84 171 0.0 6.0 0.00 0.00 0.00 56 1007.5
20260903052902 84 172 0.0 0.0 0.00 0.00 0.00 56 1007.5
20260903052618 84 173 0.0 5.0 0.00 0.00 0.00 56 1007.5
20260903051852 84 184 0.0 5.0 0.00 0.00 0.00 56 1007.5
20260903051605 84 179 0.0 4.0 0.00 0.00 0.00 56 1007.4
20260903050847 84 180 0.0 0.0 0.00 0.00 0.00 56 1007.4
20260903050346 84 180 0.0 3.0 0.00 0.00 0.00 57 1007.4
20260903045846 84 180 0.0 3.0 0.00 0.00 0.00 57 1007.3
20260903045346 84 180 0.0 0.0 0.00 0.00 0.00 57 1007.3
20260903044846 84 180 0.0 0.0 0.00 0.00 0.00 57 1007.3
20260903044345 83 180 0.0 0.0 0.00 0.00 0.00 58 1007.3
20260903043844 83 180 0.0 0.0 0.00 0.00 0.00 59 1007.2
20260903043344 83 180 0.0 0.0 0.00 0.00 0.00 60 1007.3
20260903043331 83 180 0.0 0.0 0.00 0.00 0.00 60 1007.3
20260903042340 82 180 0.0 0.0 0.00 0.00 0.00 60 1007.3
20260903041839 82 180 0.0 0.0 0.00 0.00 0.00 60 1007.3
20260903041338 82 180 0.0 0.0 0.00 0.00 0.00 60 1007.3
20260903041059 82 180 0.0 0.0 0.00 0.00 0.00 61 1007.3
20260903040334 82 180 0.0 0.0 0.00 0.00 0.00 61 1007.4
20260903035832 83 180 0.0 0.0 0.00 0.00 0.00 60 1007.4
20260903035332 83 180 0.0 0.0 0.00 0.00 0.00 60 1007.5
20260903034832 83 180 0.0 0.0 0.00 0.00 0.00 60 1007.4
20260903034330 83 180 0.0 0.0 0.00 0.00 0.00 59 1007.4
20260903033828 83 180 0.0 0.0 0.00 0.00 0.00 59 1007.4
20260903033542 83 180 0.0 0.0 0.00 0.00 0.00 58 1007.4
20260903033042 84 180 0.0 0.0 0.00 0.00 0.00 58 1007.4
20260903032310 84 180 0.0 0.0 0.00 0.00 0.00 58 1007.4
20260903031804 84 180 0.0 0.0 0.00 0.00 0.00 57 1007.4
20260903031303 85 180 0.0 0.0 0.00 0.00 0.00 57 1007.4
20260903031029 85 180 0.0 0.0 0.00 0.00 0.00 56 1007.4
20260903030303 85 180 0.0 0.0 0.00 0.00 0.00 55 1007.3
20260903030024 85 180 0.0 0.0 0.00 0.00 0.00 55 1007.3
20260903025300 86 180 0.0 0.0 0.00 0.00 0.00 54 1007.3
20260903024802 86 180 0.0 0.0 0.00 0.00 0.00 54 1007.3
20260903024301 87 180 0.0 0.0 0.00 0.00 0.00 53 1007.3